FIN7HM EFKU-EFHK

Flight info

Callsign FIN7HM
Flight time 0h 40m
Altitude 28000
Route ASTUX DCT NAPRU T83 LUSEP
Aircraft A320/M-SDE3FGHIRWY/LB1

Departure

Time 2026-05-07 17:13
Airport Kuopio Airport (EFKU)

Arrival

Time 2026-05-07 17:53
Airport Helsinki Vantaa Airport (EFHK)
Time Latitude Longitude Altitude Speed Heading
2026-05-07 16:36 63.00993 27.78932 324 ft 0 kts 302°
2026-05-07 17:04 63.00989 27.78945 323 ft 3 kts 302°
2026-05-07 17:04 63.00976 27.78989 322 ft 3 kts 302°
2026-05-07 17:04 63.00970 27.79012 323 ft 0 kts 302°
2026-05-07 17:08 63.00977 27.79002 323 ft 6 kts 328°
2026-05-07 17:08 63.01016 27.78991 325 ft 5 kts 358°
2026-05-07 17:08 63.01042 27.78991 328 ft 9 kts 359°
2026-05-07 17:08 63.01123 27.78977 324 ft 12 kts 346°
2026-05-07 17:09 63.01204 27.78901 325 ft 13 kts 335°
2026-05-07 17:09 63.01291 27.78820 321 ft 14 kts 338°
2026-05-07 17:09 63.01391 27.78730 316 ft 17 kts 336°
2026-05-07 17:09 63.01514 27.78612 309 ft 22 kts 336°
2026-05-07 17:10 63.01564 27.78561 308 ft 5 kts 335°
2026-05-07 17:10 63.01596 27.78530 310 ft 4 kts 335°
2026-05-07 17:10 63.01662 27.78468 309 ft 13 kts 338°
2026-05-07 17:10 63.01717 27.78437 312 ft 5 kts 360°
2026-05-07 17:11 63.01731 27.78444 312 ft 0 kts 15°
2026-05-07 17:11 63.01756 27.78472 313 ft 17 kts 34°
2026-05-07 17:11 63.01782 27.78737 315 ft 19 kts 119°
2026-05-07 17:12 63.01661 27.78902 320 ft 30 kts 157°
2026-05-07 17:12 63.01244 27.79285 333 ft 98 kts 157°
2026-05-07 17:12 63.00741 27.79752 323 ft 137 kts 157°
2026-05-07 17:12 62.99408 27.80974 867 ft 155 kts 157°
2026-05-07 17:13 62.98743 27.81579 1325 ft 156 kts 159°
2026-05-07 17:13 62.97716 27.82522 1818 ft 169 kts 159°
2026-05-07 17:13 62.96560 27.83584 2125 ft 191 kts 159°
2026-05-07 17:13 62.95257 27.84784 2436 ft 215 kts 159°
2026-05-07 17:14 62.93807 27.86124 2917 ft 234 kts 159°
2026-05-07 17:14 62.92283 27.87471 3737 ft 238 kts 167°
2026-05-07 17:14 62.90653 27.87611 4570 ft 239 kts 194°
2026-05-07 17:14 62.89086 27.86067 5148 ft 253 kts 211°
2026-05-07 17:15 62.87551 27.84132 5980 ft 255 kts 211°
2026-05-07 17:15 62.85995 27.82195 6847 ft 259 kts 211°
2026-05-07 17:15 62.84432 27.80264 7684 ft 263 kts 211°
2026-05-07 17:15 62.82805 27.78265 8573 ft 266 kts 211°
2026-05-07 17:16 62.81206 27.76308 9454 ft 268 kts 210°
2026-05-07 17:16 62.79566 27.74305 10297 ft 272 kts 210°
2026-05-07 17:16 62.77850 27.72210 10616 ft 294 kts 210°
2026-05-07 17:16 62.75997 27.69945 10901 ft 315 kts 210°
2026-05-07 17:17 62.74059 27.67585 11530 ft 322 kts 210°
2026-05-07 17:17 62.72077 27.65179 12280 ft 326 kts 211°
2026-05-07 17:17 62.70082 27.62759 13024 ft 330 kts 211°
2026-05-07 17:17 62.68079 27.60333 13778 ft 333 kts 211°
2026-05-07 17:18 62.66040 27.57867 14450 ft 336 kts 211°
2026-05-07 17:18 62.63990 27.55392 15165 ft 338 kts 211°
2026-05-07 17:18 62.61933 27.52912 15894 ft 338 kts 212°
2026-05-07 17:18 62.59896 27.50459 16617 ft 339 kts 212°
2026-05-07 17:19 62.57810 27.47949 17349 ft 339 kts 213°
2026-05-07 17:19 62.55770 27.45497 18104 ft 339 kts 213°
2026-05-07 17:19 62.53760 27.42872 18776 ft 338 kts 217°
2026-05-07 17:19 62.51796 27.40068 19402 ft 338 kts 218°
2026-05-07 17:20 62.49855 27.37186 20027 ft 339 kts 219°
2026-05-07 17:20 62.47910 27.34266 20654 ft 340 kts 219°
2026-05-07 17:20 62.45948 27.31349 21263 ft 342 kts 218°
2026-05-07 17:20 62.43977 27.28458 21856 ft 343 kts 218°
2026-05-07 17:21 62.42015 27.25611 22433 ft 345 kts 218°
2026-05-07 17:21 62.40015 27.22731 23000 ft 346 kts 218°
2026-05-07 17:21 62.38003 27.19847 23556 ft 348 kts 218°
2026-05-07 17:21 62.35979 27.16955 24004 ft 350 kts 218°
2026-05-07 17:22 62.33943 27.14054 24400 ft 352 kts 218°
2026-05-07 17:22 62.31893 27.11134 24745 ft 355 kts 218°
2026-05-07 17:22 62.29825 27.08189 25125 ft 357 kts 218°
2026-05-07 17:22 62.27745 27.05227 25490 ft 360 kts 218°
2026-05-07 17:23 62.25649 27.02256 25848 ft 363 kts 218°
2026-05-07 17:23 62.23533 26.99269 26196 ft 365 kts 218°
2026-05-07 17:23 62.21408 26.96268 26540 ft 368 kts 218°
2026-05-07 17:23 62.19262 26.93233 26878 ft 370 kts 218°
2026-05-07 17:24 62.17103 26.90185 27206 ft 373 kts 218°
2026-05-07 17:24 62.14931 26.87120 27528 ft 376 kts 218°
2026-05-07 17:24 62.12742 26.84038 27846 ft 378 kts 218°
2026-05-07 17:24 62.10534 26.80938 28035 ft 380 kts 218°
2026-05-07 17:25 62.06207 26.74907 28071 ft 367 kts 218°
2026-05-07 17:25 62.01936 26.68957 28071 ft 366 kts 218°
2026-05-07 17:26 61.97673 26.63022 28068 ft 366 kts 218°
2026-05-07 17:26 61.93397 26.57105 28064 ft 366 kts 218°
2026-05-07 17:27 61.89125 26.51202 28065 ft 366 kts 218°
2026-05-07 17:27 61.84849 26.45319 28055 ft 366 kts 218°
2026-05-07 17:28 61.80570 26.39463 28027 ft 366 kts 218°
2026-05-07 17:28 61.76291 26.33623 28049 ft 366 kts 218°
2026-05-07 17:29 61.72023 26.27820 28053 ft 365 kts 218°
2026-05-07 17:29 61.67752 26.22024 28049 ft 365 kts 218°
2026-05-07 17:30 61.63511 26.16283 28051 ft 365 kts 218°
2026-05-07 17:30 61.59215 26.10482 28054 ft 365 kts 218°
2026-05-07 17:31 61.54967 26.04787 28009 ft 365 kts 218°
2026-05-07 17:31 61.50677 25.99056 27816 ft 364 kts 219°
2026-05-07 17:32 61.48567 25.96242 27409 ft 356 kts 219°
2026-05-07 17:32 61.46492 25.93486 26934 ft 350 kts 219°
2026-05-07 17:32 61.44450 25.90769 26469 ft 345 kts 219°
2026-05-07 17:32 61.42441 25.88098 26016 ft 340 kts 219°
2026-05-07 17:33 61.40458 25.85462 25572 ft 336 kts 219°
2026-05-07 17:33 61.38492 25.82861 25139 ft 332 kts 219°
2026-05-07 17:33 61.36555 25.80303 24710 ft 328 kts 219°
2026-05-07 17:33 61.34642 25.77781 24303 ft 324 kts 219°
2026-05-07 17:34 61.32751 25.75290 23915 ft 319 kts 219°
2026-05-07 17:34 61.30883 25.72838 23502 ft 315 kts 219°
2026-05-07 17:34 61.29046 25.70423 23010 ft 310 kts 219°
2026-05-07 17:34 61.27237 25.68046 22645 ft 305 kts 220°
2026-05-07 17:35 61.25448 25.65688 22248 ft 304 kts 220°
2026-05-07 17:35 61.23691 25.63377 21855 ft 303 kts 219°
2026-05-07 17:35 61.21911 25.61046 21455 ft 302 kts 219°
2026-05-07 17:35 61.20137 25.58724 21033 ft 301 kts 219°
2026-05-07 17:36 61.18368 25.56409 20644 ft 300 kts 219°
2026-05-07 17:36 61.16605 25.54109 20239 ft 300 kts 219°
2026-05-07 17:36 61.14836 25.51811 19823 ft 299 kts 219°
2026-05-07 17:36 61.13030 25.49455 19406 ft 316 kts 219°
2026-05-07 17:37 61.11153 25.47004 18956 ft 321 kts 218°
2026-05-07 17:37 61.09259 25.44549 18503 ft 321 kts 218°
2026-05-07 17:37 61.07366 25.42099 18026 ft 321 kts 218°
2026-05-07 17:37 61.05476 25.39658 17564 ft 320 kts 218°
2026-05-07 17:38 61.03590 25.37225 17081 ft 320 kts 218°
2026-05-07 17:38 61.01700 25.34791 16676 ft 320 kts 218°
2026-05-07 17:38 60.99810 25.32362 16237 ft 319 kts 218°
2026-05-07 17:38 60.97927 25.29944 15796 ft 319 kts 217°
2026-05-07 17:39 60.95919 25.27924 15366 ft 324 kts 206°
2026-05-07 17:39 60.93705 25.26823 14927 ft 331 kts 193°
2026-05-07 17:39 60.91383 25.26702 14454 ft 336 kts 184°
2026-05-07 17:39 60.89060 25.26876 14232 ft 328 kts 184°
2026-05-07 17:40 60.86816 25.27042 14107 ft 317 kts 184°
2026-05-07 17:40 60.84645 25.27196 13980 ft 307 kts 185°
2026-05-07 17:40 60.82534 25.27335 13751 ft 301 kts 185°
2026-05-07 17:40 60.80435 25.27463 13311 ft 302 kts 184°
2026-05-07 17:41 60.78347 25.27591 12954 ft 299 kts 184°
2026-05-07 17:41 60.76258 25.27717 12549 ft 298 kts 183°
2026-05-07 17:41 60.74210 25.27843 11972 ft 293 kts 182°
2026-05-07 17:41 60.72179 25.27937 11295 ft 293 kts 183°
2026-05-07 17:42 60.70035 25.28001 10618 ft 316 kts 181°
2026-05-07 17:42 60.67867 25.28091 9973 ft 313 kts 180°
2026-05-07 17:42 60.65707 25.28133 9253 ft 306 kts 181°
2026-05-07 17:42 60.63612 25.28184 8725 ft 295 kts 181°
2026-05-07 17:43 60.61601 25.28240 8277 ft 285 kts 181°
2026-05-07 17:43 60.59622 25.28290 7851 ft 284 kts 181°
2026-05-07 17:43 60.57650 25.28339 7461 ft 283 kts 181°
2026-05-07 17:43 60.55686 25.28377 7077 ft 282 kts 181°
2026-05-07 17:44 60.53723 25.28401 6692 ft 281 kts 181°
2026-05-07 17:44 60.51772 25.28416 6303 ft 280 kts 181°
2026-05-07 17:44 60.49826 25.28431 5906 ft 279 kts 181°
2026-05-07 17:44 60.47929 25.27932 5513 ft 273 kts 203°
2026-05-07 17:45 60.46387 25.25830 5122 ft 265 kts 232°
2026-05-07 17:45 60.45364 25.22908 5009 ft 250 kts 240°
2026-05-07 17:45 60.44470 25.20035 5004 ft 232 kts 240°
2026-05-07 17:45 60.43629 25.17313 5007 ft 226 kts 240°
2026-05-07 17:46 60.42874 25.14530 5009 ft 224 kts 256°
2026-05-07 17:46 60.42843 25.11471 5006 ft 218 kts 290°
2026-05-07 17:46 60.43662 25.08973 5007 ft 215 kts 323°
2026-05-07 17:46 60.44952 25.07435 5011 ft 216 kts 334°
2026-05-07 17:47 60.46329 25.06125 5013 ft 216 kts 335°
2026-05-07 17:47 60.47683 25.04887 5019 ft 216 kts 336°
2026-05-07 17:47 60.49056 25.03636 5013 ft 216 kts 336°
2026-05-07 17:47 60.50428 25.02387 5013 ft 216 kts 335°
2026-05-07 17:48 60.51801 25.01118 4962 ft 217 kts 331°
2026-05-07 17:48 60.52867 24.99036 4829 ft 216 kts 298°
2026-05-07 17:48 60.53161 24.96065 4635 ft 220 kts 264°
2026-05-07 17:48 60.52568 24.93216 4370 ft 224 kts 230°
2026-05-07 17:49 60.51334 24.91264 4110 ft 227 kts 213°
2026-05-07 17:49 60.49971 24.89671 3858 ft 225 kts 211°
2026-05-07 17:49 60.48598 24.88150 3576 ft 225 kts 208°
2026-05-07 17:49 60.47116 24.87132 3264 ft 227 kts 191°
2026-05-07 17:50 60.45541 24.86844 2920 ft 229 kts 185°
2026-05-07 17:50 60.43942 24.86698 2530 ft 232 kts 185°
2026-05-07 17:50 60.42341 24.86963 2236 ft 232 kts 164°
2026-05-07 17:50 60.40882 24.88321 1957 ft 230 kts 155°
2026-05-07 17:51 60.39468 24.89809 1661 ft 225 kts 155°
2026-05-07 17:51 60.38137 24.91195 1357 ft 206 kts 155°
2026-05-07 17:51 60.36905 24.92465 1062 ft 190 kts 155°
2026-05-07 17:51 60.35772 24.93631 808 ft 175 kts 156°
2026-05-07 17:52 60.34761 24.94671 595 ft 154 kts 155°
2026-05-07 17:52 60.33857 24.95598 397 ft 139 kts 155°
2026-05-07 17:52 60.33014 24.96469 210 ft 134 kts 155°
2026-05-07 17:52 60.32252 24.97245 155 ft 101 kts 152°
2026-05-07 17:53 60.31778 24.97722 152 ft 55 kts 153°
2026-05-07 17:53 60.31488 24.98011 153 ft 23 kts 165°
2026-05-07 17:53 60.31433 24.97932 158 ft 4 kts 241°
2026-05-07 17:53 60.31408 24.97845 161 ft 8 kts 239°
2026-05-07 17:54 60.31401 24.97820 161 ft 0 kts 239°
2026-05-07 17:55 60.31397 24.97806 161 ft 2 kts 239°
2026-05-07 17:55 60.31382 24.97706 161 ft 12 kts 282°
2026-05-07 17:55 60.31430 24.97609 161 ft 7 kts 328°
2026-05-07 17:55 60.31512 24.97512 161 ft 14 kts 333°
2026-05-07 17:56 60.31593 24.97427 161 ft 11 kts 332°
2026-05-07 17:56 60.31602 24.97318 161 ft 6 kts 248°
2026-05-07 17:56 60.31595 24.97286 161 ft 0 kts 245°